EDT,Max TemperatureF,Mean TemperatureF,Min TemperatureF,Max Dew PointF,MeanDew PointF,Min DewpointF,Max Humidity, Mean Humidity, Min Humidity, Max Sea Level PressureIn, Mean Sea Level PressureIn, Min Sea Level PressureIn, Max VisibilityMiles, Mean VisibilityMiles, Min VisibilityMiles, Max Wind SpeedMPH, Mean Wind SpeedMPH, Max Gust SpeedMPH,PrecipitationIn, CloudCover, Events, WindDirDegrees
2013-8-1,75,70,64,67,63,59,100,82,64,29.90,29.83,29.78,10,8,2,25,10,30,0.44,7,Rain-Thunderstorm,226
2013-8-2,76,68,60,64,60,56,100,77,53,29.89,29.87,29.83,10,8,2,29,12,36,0.46,5,Rain-Thunderstorm,221
2013-8-3,74,67,60,62,57,51,97,72,46,29.96,29.91,29.84,10,10,9,22,10,28,0.00,4,,266
2013-8-4,72,65,57,57,52,47,86,65,44,30.09,30.02,29.96,10,10,10,18,10,25,0.00,4,,311
2013-8-5,73,62,50,53,49,47,89,67,44,30.14,30.08,30.02,10,10,10,12,6,16,0.00,3,,222
2013-8-6,80,69,57,58,54,52,86,63,40,30.05,30.02,29.96,10,10,10,10,5,14,0.00,6,Rain,148
2013-8-7,82,74,66,68,63,58,84,69,54,29.97,29.92,29.86,10,10,10,26,10,31,0.00,6,Rain-Thunderstorm,191
2013-8-8,83,75,66,72,68,62,100,83,65,29.97,29.93,29.89,10,9,1,17,7,24,0.64,6,Rain-Thunderstorm,219
2013-8-9,76,70,64,70,63,57,100,80,60,29.95,29.90,29.87,10,8,3,18,9,23,0.27,7,Rain-Thunderstorm,302
2013-8-10,72,67,61,64,55,45,87,64,40,30.09,30.05,29.96,10,10,10,17,8,21,0.00,4,,273
2013-8-11,75,65,55,57,53,50,93,70,46,30.14,30.10,30.05,10,10,10,13,4,15,0.00,3,,238
2013-8-12,76,70,63,63,59,54,78,66,53,30.05,29.97,29.86,10,10,10,17,7,23,0.01,6,,215
2013-8-13,70,63,55,64,57,46,93,73,53,29.91,29.83,29.77,10,9,2,21,11,28,0.23,7,Rain-Thunderstorm,263
2013-8-14,70,62,53,52,47,41,89,63,37,30.11,30.00,29.90,10,10,10,22,11,28,0.00,5,,290
2013-8-15,72,63,53,54,49,46,83,64,44,30.15,30.12,30.09,10,10,10,24,10,30,0.00,3,,239
2013-8-16,76,65,54,57,53,50,93,68,43,30.21,30.17,30.13,10,10,10,13,5,17,0.00,3,,209
2013-8-17,80,68,55,56,52,48,93,64,35,30.29,30.26,30.22,10,10,10,13,5,16,0.00,4,,129
2013-8-18,80,70,60,61,55,51,78,59,39,30.25,30.19,30.12,10,10,10,9,4,12,0.00,5,,148
2013-8-19,79,70,61,64,60,56,90,68,45,30.13,30.09,30.05,10,10,10,14,8,18,0.00,2,,215
2013-8-20,80,70,60,64,61,57,93,72,51,30.15,30.11,30.07,10,10,6,17,9,22,0.00,0,,218
2013-8-21,83,72,61,64,61,57,84,66,47,30.17,30.12,30.03,10,10,9,16,8,22,0.00,3,,207
2013-8-22,78,72,66,70,66,56,84,75,66,30.04,29.97,29.93,10,8,1,24,10,30,0.49,6,Rain-Thunderstorm,235
2013-8-23,76,67,58,57,54,50,90,67,43,30.21,30.11,30.02,10,10,10,14,5,17,0.00,2,,42
2013-8-24,77,66,54,54,51,48,89,64,38,30.36,30.31,30.23,10,10,10,12,5,21,0.00,1,,94
2013-8-25,80,68,56,59,54,51,86,63,39,30.34,30.27,30.15,10,10,10,20,10,26,0.01,4,Thunderstorm,200
2013-8-26,77,74,70,70,67,59,97,79,61,30.16,30.02,29.96,10,7,0,26,14,36,0.70,7,Fog-Rain-Thunderstorm,232
2013-8-27,82,75,68,72,70,66,97,83,69,29.95,29.92,29.88,9,6,3,14,8,17,0.15,7,Rain-Thunderstorm,227
2013-8-28,83,76,68,72,69,67,93,78,63,29.97,29.88,29.86,10,8,2,15,6,17,0.04,6,Rain,145
2013-8-29,86,76,65,68,66,64,100,76,51,30.05,30.01,29.96,10,6,0,12,4,15,0.00,2,Fog,32
2013-8-30,82,73,64,68,65,62,93,78,62,30.00,29.90,29.75,10,9,7,23,9,30,0.02,5,Rain,203
2013-8-31,81,75,69,72,68,64,93,78,62,29.85,29.78,29.71,10,9,4,22,8,30,0.05,7,Rain-Thunderstorm,255